EN

Hourly Weather Seoul

Today, 22 June, Tuesday

Time Temperature Precipitation Wind Pressure Humidity
00:00 +22°C° 0.1 mm 1 mps 749 mmHg 72%
01:00 +22°C° 0.1 mm 1 mps 749 mmHg 75%
02:00 +19°C° 0 mm 0 mps 749 mmHg 78%
03:00 +19°C° 0 mm 0 mps 750 mmHg 79%
04:00 +21°C° 0 mm 1 mps 750 mmHg 79%
05:00 +21°C° 0 mm 1 mps 750 mmHg 80%
06:00 +22°C° 0 mm 1 mps 750 mmHg 73%
07:00 +23°C° 0 mm 1 mps 750 mmHg 66%
08:00 +25°C° 0 mm 1 mps 750 mmHg 60%
09:00 +26°C° 0.1 mm 2 mps 750 mmHg 56%
10:00 +27°C° 0.1 mm 2 mps 750 mmHg 51%
11:00 +28°C° 0.1 mm 2 mps 750 mmHg 47%
12:00 +27°C° 0.1 mm 2 mps 750 mmHg 52%
13:00 +25°C° 0.1 mm 2 mps 750 mmHg 57%
14:00 +24°C° 0.1 mm 2 mps 750 mmHg 62%
15:00 +24°C° 0.2 mm 1 mps 750 mmHg 65%
16:00 +23°C° 0.2 mm 1 mps 750 mmHg 67%
17:00 +21°C° 0.2 mm 0 mps 750 mmHg 70%
18:00 +21°C° 0.1 mm 0 mps 750 mmHg 72%
19:00 +21°C° 0.1 mm 0 mps 750 mmHg 74%
20:00 +22°C° 0.1 mm 1 mps 751 mmHg 75%
21:00 +22°C° 0 mm 1 mps 751 mmHg 77%
22:00 +22°C° 0 mm 1 mps 751 mmHg 78%
23:00 +22°C° 0 mm 1 mps 751 mmHg 79%

Tomorrow, 23 June, Wednesday

Time Temperature Precipitation Wind Pressure Humidity
00:00 +21°C° 0 mm 1 mps 751 mmHg 81%
01:00 +21°C° 0 mm 1 mps 751 mmHg 82%
02:00 +20°C° 0 mm 1 mps 751 mmHg 84%
03:00 +20°C° 0 mm 1 mps 751 mmHg 84%
04:00 +20°C° 0 mm 1 mps 751 mmHg 83%
05:00 +20°C° 0 mm 1 mps 751 mmHg 83%
06:00 +21°C° 0 mm 1 mps 751 mmHg 76%
07:00 +23°C° 0 mm 1 mps 752 mmHg 68%
08:00 +24°C° 0 mm 1 mps 752 mmHg 61%
09:00 +25°C° 0.1 mm 1 mps 752 mmHg 57%
10:00 +26°C° 0.1 mm 1 mps 751 mmHg 54%
11:00 +28°C° 0.1 mm 1 mps 751 mmHg 50%
12:00 +28°C° 0.5 mm 1 mps 751 mmHg 52%
13:00 +27°C° 0.5 mm 1 mps 751 mmHg 53%
14:00 +27°C° 0.5 mm 1 mps 750 mmHg 54%
15:00 +27°C° 0.3 mm 1 mps 750 mmHg 56%
16:00 +26°C° 0.3 mm 1 mps 750 mmHg 58%
17:00 +26°C° 0.3 mm 1 mps 751 mmHg 60%
18:00 +25°C° 0.1 mm 1 mps 751 mmHg 64%
19:00 +24°C° 0.1 mm 1 mps 751 mmHg 68%
20:00 +23°C° 0.1 mm 1 mps 752 mmHg 72%
21:00 +23°C° 0 mm 1 mps 752 mmHg 74%
22:00 +22°C° 0 mm 1 mps 752 mmHg 76%
23:00 +22°C° 0 mm 1 mps 752 mmHg 78%

Day after tomorrow, 24 June, Thursday

Time Temperature Precipitation Wind Pressure Humidity
00:00 +22°C° 0 mm 1 mps 752 mmHg 79%
01:00 +21°C° 0 mm 1 mps 752 mmHg 80%
02:00 +21°C° 0 mm 1 mps 752 mmHg 82%
03:00 +21°C° 0 mm 1 mps 752 mmHg 82%
04:00 +20°C° 0 mm 1 mps 752 mmHg 82%
05:00 +20°C° 0 mm 1 mps 752 mmHg 82%
06:00 +20°C° 0 mm 0 mps 752 mmHg 76%
07:00 +21°C° 0 mm 0 mps 752 mmHg 69%
08:00 +23°C° 0 mm 0 mps 752 mmHg 63%
09:00 +26°C° 0 mm 1 mps 752 mmHg 58%
10:00 +28°C° 0 mm 1 mps 752 mmHg 53%
11:00 +29°C° 0 mm 1 mps 752 mmHg 47%
12:00 +29°C° 0 mm 2 mps 751 mmHg 47%
13:00 +29°C° 0 mm 2 mps 751 mmHg 46%
14:00 +29°C° 0 mm 3 mps 751 mmHg 46%
15:00 +28°C° 0 mm 3 mps 751 mmHg 49%
16:00 +28°C° 0 mm 3 mps 751 mmHg 53%
17:00 +27°C° 0 mm 3 mps 751 mmHg 56%
18:00 +26°C° 0 mm 2 mps 751 mmHg 60%
19:00 +25°C° 0 mm 2 mps 751 mmHg 64%
20:00 +24°C° 0 mm 1 mps 751 mmHg 67%
21:00 +24°C° 0 mm 1 mps 751 mmHg 69%
22:00 +23°C° 0 mm 1 mps 752 mmHg 71%
23:00 +23°C° 0 mm 1 mps 752 mmHg 73%

25 June, Friday

Time Temperature Precipitation Wind Pressure Humidity
00:00 +21°C° 0 mm 0 mps 752 mmHg 74%
01:00 +20°C° 0 mm 0 mps 752 mmHg 76%
02:00 +20°C° 0 mm 0 mps 752 mmHg 77%
03:00 +20°C° 0 mm 0 mps 752 mmHg 78%
04:00 +20°C° 0 mm 0 mps 752 mmHg 78%
05:00 +20°C° 0 mm 0 mps 752 mmHg 79%
06:00 +21°C° 0 mm 0 mps 752 mmHg 73%
07:00 +22°C° 0 mm 0 mps 752 mmHg 67%
08:00 +24°C° 0 mm 0 mps 752 mmHg 61%
09:00 +27°C° 0 mm 1 mps 752 mmHg 56%
10:00 +28°C° 0 mm 1 mps 752 mmHg 51%
11:00 +30°C° 0 mm 1 mps 751 mmHg 46%
12:00 +30°C° 0 mm 2 mps 751 mmHg 46%
13:00 +30°C° 0 mm 3 mps 751 mmHg 45%
14:00 +30°C° 0 mm 3 mps 750 mmHg 44%
15:00 +29°C° 0 mm 3 mps 751 mmHg 48%
16:00 +27°C° 0 mm 3 mps 751 mmHg 53%
17:00 +26°C° 0 mm 3 mps 751 mmHg 57%
18:00 +26°C° 0 mm 2 mps 751 mmHg 60%
19:00 +25°C° 0 mm 2 mps 751 mmHg 62%
20:00 +24°C° 0 mm 1 mps 752 mmHg 65%
21:00 +24°C° 0 mm 1 mps 752 mmHg 66%
22:00 +24°C° 0 mm 1 mps 752 mmHg 67%
23:00 +22°C° 0 mm 0 mps 752 mmHg 68%

26 June, Saturday

Time Temperature Precipitation Wind Pressure Humidity
00:00 +22°C° 0 mm 0 mps 752 mmHg 70%
01:00 +23°C° 0 mm 1 mps 751 mmHg 72%
02:00 +23°C° 0 mm 1 mps 751 mmHg 73%
03:00 +23°C° 0.4 mm 1 mps 752 mmHg 78%
04:00 +22°C° 0.4 mm 1 mps 752 mmHg 83%
05:00 +22°C° 0.4 mm 1 mps 752 mmHg 88%
06:00 +21°C° 0.4 mm 1 mps 752 mmHg 89%
07:00 +21°C° 0.4 mm 1 mps 752 mmHg 90%
08:00 +21°C° 0.4 mm 1 mps 752 mmHg 91%
09:00 +21°C° 0.1 mm 1 mps 752 mmHg 90%
10:00 +22°C° 0.1 mm 1 mps 752 mmHg 89%
11:00 +20°C° 0.1 mm 0 mps 752 mmHg 87%
12:00 +20°C° 0 mm 0 mps 752 mmHg 86%
13:00 +20°C° 0 mm 0 mps 752 mmHg 84%
14:00 +21°C° 0 mm 0 mps 751 mmHg 82%
15:00 +21°C° 0.2 mm 0 mps 751 mmHg 83%
16:00 +20°C° 0.2 mm 0 mps 751 mmHg 84%
17:00 +20°C° 0.2 mm 0 mps 751 mmHg 85%
18:00 +20°C° 0.1 mm 0 mps 751 mmHg 86%
19:00 +20°C° 0.1 mm 0 mps 752 mmHg 86%
20:00 +20°C° 0.1 mm 0 mps 752 mmHg 86%
21:00 +20°C° 0 mm 0 mps 752 mmHg 86%
22:00 +20°C° 0 mm 0 mps 751 mmHg 86%
23:00 +21°C° 0 mm 1 mps 751 mmHg 87%

27 June, Sunday

Time Temperature Precipitation Wind Pressure Humidity
00:00 +21°C° 0 mm 1 mps 751 mmHg 87%
01:00 +21°C° 0 mm 1 mps 751 mmHg 88%
02:00 +20°C° 0 mm 1 mps 750 mmHg 89%
03:00 +20°C° 0 mm 1 mps 750 mmHg 88%
04:00 +20°C° 0 mm 1 mps 751 mmHg 88%
05:00 +20°C° 0 mm 1 mps 751 mmHg 87%
06:00 +22°C° 0 mm 1 mps 751 mmHg 79%
07:00 +23°C° 0 mm 1 mps 751 mmHg 71%
08:00 +25°C° 0 mm 1 mps 751 mmHg 62%
09:00 +27°C° 0 mm 1 mps 750 mmHg 56%
10:00 +27°C° 0 mm 0 mps 750 mmHg 50%
11:00 +29°C° 0 mm 0 mps 749 mmHg 44%
12:00 +29°C° 0 mm 0 mps 749 mmHg 43%
13:00 +31°C° 0 mm 1 mps 748 mmHg 43%
14:00 +31°C° 0 mm 1 mps 748 mmHg 42%
15:00 +31°C° 0 mm 1 mps 748 mmHg 43%
16:00 +31°C° 0 mm 2 mps 747 mmHg 45%
17:00 +30°C° 0 mm 2 mps 747 mmHg 47%
18:00 +29°C° 0 mm 2 mps 747 mmHg 51%
19:00 +28°C° 0 mm 2 mps 748 mmHg 55%
20:00 +27°C° 0 mm 2 mps 748 mmHg 60%
21:00 +27°C° 0 mm 2 mps 748 mmHg 62%
22:00 +26°C° 0 mm 2 mps 748 mmHg 65%
23:00 +26°C° 0 mm 1 mps 748 mmHg 67%
Show more